This demonstration page uses our WeatherBlox Daily Observations layout. Learn more.

Left ArrowRight Arrow

44.8408, -93.29828

Hourly Observations for May 26, 2021

Temp ( °F °C ) Dew Point ( °F °C ) Humidity (%) Winds ( mph kmh ) Pressure ( in mb ) Visibility ( mi km ) Precip ( " mm )
12:53 am 00:53 Clear 65 18.3 46 7.8 51 51 WNW 13 20 29.88 1012 10 16 0.00 0.00
1:53 am 01:53 Clear 64 17.8 47 8.3 54 54 WNW 9 15 29.88 1012 10 16 0.00 0.00
2:53 am 02:53 Clear 63 17.2 47 8.3 56 56 WNW 9 15 29.90 1013 10 16 0.00 0.00
3:53 am 03:53 Clear 61 16.1 48 8.9 63 63 WNW 9 15 29.92 1013 10 16 0.00 0.00
4:53 am 04:53 Partly Cloudy 60 15.6 49 9.4 67 67 NNW 20 31 29.94 1014 10 16 0.00 0.00
5:53 am 05:53 Mostly Sunny 56 13.3 43 6.1 62 62 NW 21 33 29.98 1015 10 16 0.00 0.00
6:53 am 06:53 Mostly Sunny 56 13.3 43 6.1 62 62 NW 14 22 30.02 1017 10 16 0.00 0.00
7:53 am 07:53 Mostly Sunny 55 12.8 41 5 59 59 NW 22 35 30.05 1018 10 16 0.00 0.00
8:53 am 08:53 Mostly Sunny 56 13.3 41 5 57 57 NW 16 26 30.08 1019 10 16 0.00 0.00
9:53 am 09:53 Mostly Sunny 57 13.9 41 5 55 55 NNW 15 24 30.11 1020 10 16 0.00 0.00
10:53 am 10:53 Mostly Sunny 55 12.8 41 5 59 59 WNW 13 20 30.15 1021 10 16 0.00 0.00
11:53 am 11:53 Mostly Sunny 58 14.4 41 5 53 53 NNW 13 20 30.17 1022 10 16 0.00 0.00
12:53 pm 12:53 Sunny 59 15 41 5 51 51 NW 16 26 30.17 1022 10 16 0.00 0.00
1:53 pm 13:53 Mostly Sunny 62 16.7 40 4.4 44 44 NNW 14 22 30.16 1021 10 16 0.00 0.00
2:53 pm 14:53 Mostly Sunny 64 17.8 40 4.4 41 41 N 14 22 30.15 1021 10 16 0.00 0.00
3:53 pm 15:53 Mostly Sunny 64 17.8 39 3.9 40 40 NW 10 17 30.15 1021 10 16 0.00 0.00
4:53 pm 16:53 Mostly Sunny 65 18.3 38 3.3 37 37 N 8 13 30.15 1021 10 16 0.00 0.00
5:53 pm 17:53 Partly Cloudy 64 17.8 38 3.3 38 38 N 8 13 30.14 1021 10 16 0.00 0.00
6:53 pm 18:53 Mostly Cloudy 62 16.7 37 2.8 40 40 NNE 8 13 30.16 1021 10 16 0.00 0.00
7:53 pm 19:53 Mostly Cloudy 61 16.1 35 1.7 38 38 NNE 8 13 30.17 1022 10 16 0.00 0.00
8:08 pm 20:08 Cloudy 61 16.1 34 1.1 36 36 NE 13 20 30.11 1020 10 16 0.00 0.00
8:53 pm 20:53 Mostly Cloudy 59 15 35 1.7 41 41 NNE 7 11 30.16 1021 10 16 0.00 0.00
9:53 pm 21:53 Mostly Cloudy 58 14.4 38 3.3 48 48 VRB 7 11 30.20 1023 10 16 0.00 0.00
10:53 pm 22:53 Mostly Cloudy 57 13.9 36 2.2 45 45 NNE 10 17 30.19 1022 10 16 0.00 0.00
11:53 pm 23:53 Mostly Cloudy 56 13.3 39 3.9 53 53 NNE 5 7 30.19 1022 10 16 0.00 0.00

Powered by AerisWeather